Погода в Рославле

Погода в Рославле : погода сейчас, прогноз погоды и архив. Всё, что Вы хотите узнать о погоде в Рославле!

Хотите узнать прогноз погоды в Рославле? Тогда Вам сюда: Погода в Рославле

Поиск расширенной информации на нашем сайте:

Полезная информация:

Другие новости

Новости СМИ2

Главная страница сайта

Новости сайта

03.07.2017

Напоминаем, что на нашем специализированном сайте Метеоцентр.Азия вы можете получить высокодетализированные автоматические прогнозы погоды по пунктам России, СНГ и мира в авиационном формате (включающие направление и скорость ветра, видимость, явления погоды, количество и форму облачности, нижнюю и верхнюю границу облачности).

Рекомендуем:

Погода в Рославле - сегодня

Время (UTC), дата Ветер
(°,м/с) 
Видим.   Явления Облачность Т
(°С)
Тd
(°С)
f(%) Тe
(°С)
Pmin
(гПа)
dP
(гПа)
Po
(мм)
O2
(г/м3)
Тmin Tmax R s Состояние
почвы
03 16.07.19 040 (СВ) 8000 м  слаб. дождь  10/10 360 м 
[Frnb|Ns]
+12.2 +11.2 94 +16  1010  -0.6  738  282  +11.5       
06 16.07.19 020 (С) 7000 м  дождь  10/10 360 м 
[Frnb|Ns]
+13.2 +12.1 93 +18  1009.7  -0.2  737  281  +11.5      влажная 
09 16.07.19 040 (СВ) 9000 м  слаб. дождь  10/10 330 м 
[Frnb|Ns]
+13.6 +12.5 93 +20  1009.5  0.1  737  281           
12 16.07.19 020 (С) 20000 м  {дождь}  9/8 600 м верхняя 
[Cu hum|Cc]
+18.3 +12 67 +23  1008  -1.1  737  276           
15 16.07.19 070 (В) 20000 м    8/5 600 м верхняя 
[Cu med, cong|Cs]
+19.9 +11.9 60 +25  1007.4  -0.4  736  274      16     
18 16.07.19 310 (СЗ) 20000 м    4/1 600 м средняя, верхняя 
[Cu med, cong|Ac As|Ci fib]
+14.7 +11.2 80 +19  1007.9  736  279    +20.3  12     
21 16.07.19 260 (З) 50000 м    3/0 средняя 
[Ac As]
+10.3 +8.8 90 +11  1008  -0.3  736  284           
00 17.07.19 130 (ЮВ) 30000 м    8/0 средняя, верхняя 
[Ac trans|Ci sp]
+9.5 +8.5 93 +11  1007.4  -0.7  735  285           
03 17.07.19 090 (В) 20000 м    9/0 средняя, верхняя 
[Ac trans|Ci]
+11.1 +10.2 94 +14  1006.8  -0.4  735  283  +8.8         
06 17.07.19 110 (В) 20000 м    9/3 600 м средняя, верхняя 
[Cu med, cong|Ac trans|Cc]
+18.3 +13.4 73 +26  1005.2  -0.9  734  275  +8.8        влажная 
09 17.07.19 190 (Ю) 20000 м    9/5 600 м средняя, верхняя 
[Cu med, cong|Ac trans|Cs]
+20.1 +11.1 56 +23  1004.9  -0.2  734  274           
12 17.07.19 350 (С) 2{15}  4000 м  гроза, ливневой дождь  9/8 600 м кучево-дожд., средняя 
[Cb cap|Ac cuf]
+12.4 +11.3 93 +16  1005.6  734  281           
15 17.07.19 070 (В) 20000 м  {гроза, ливн. осадки}  9/3 600 м средняя, верхняя 
[Cu med, cong|Ac trans|Cs]
+14.8 +12.8 88 +22  1004.8  -0.6  734  278         
18 17.07.19 110 (В) 20000 м  {гроза}  9/3 300 м средняя 
[St|Ac trans]
+13.9 +12.1 89 +19  1005.3  0.4  734  279    +22.1     
21 17.07.19 тихо ()   7000 м  дымка  9/0 средняя 
[Ac trans]
+11.6 +10.5 93 +14  1005.4  0.1  734  282           
00 18.07.19 тихо ()   0800 м  туман  ?/?  
+11.3 +10.4 94 +13  1005.2  -0.3  734  282           
03 18.07.19 230 (ЮЗ) 0800 м  туман  ?/?  
+11.8 +10.8 94 +16  1004.7  -0.4  734  281  +11         
06 18.07.19 220 (ЮЗ) 2000 м  дымка{туман}  10/10 270 м 
[St]
+13 +12.1 94 +19  1004.8  0.2  734  280  +11        влажная 
09 18.07.19 220 (ЮЗ) 18000 м    9/9 300 м кучево-дожд. 
[Cb cap]
+16.4 +12.1 76 +22  1004.3  -0.2  734  277           
12 18.07.19 240 (ЮЗ) 18000 м  в посл. час ливневой дождь{гроза}  10/8 600 м кучево-дожд., средняя 
[Cb cap|As trans]
+15.1 +13.8 92 +23  1004.8  0.4  734  277           
15 18.07.19 240 (ЮЗ) 18000 м  слаб. ливневой дождь  10/10 300 м кучево-дожд. 
[Cb cap]
+14.2 +12.5 90 +19  1005  0.1  734  279         
18 18.07.19 240 (ЮЗ) 7000 м  слаб. дождь{ливн. осадки}  10/10 330 м 
[Frnb|Ns]
+13.5 +12.1 91 +18  1004.7  -0.4  734  279    +18.5  11     
21 18.07.19 240 (ЮЗ) 18000 м  слаб. дождь  10/5 300 м средняя 
[Frnb|Ac As]
+13.8 +12.6 92 +18  1004.5  -0.2  734  279           
00 19.07.19 260 (З) 6-10{10}  25000 м  {дождь}  9/6 600 м средняя 
[Cu hum|Ac trans]
+14.4 +12.7 90 +19  1004.8  0.2  734  278           
03 19.07.19 260 (З) 4{10}  18000 м  в посл. час дождь  9/5 300 м средняя 
[Cu hum|Ac trans]
+13.9 +12.5 91 +19  1006.5  1.7  735  279  +13.4       
Время (UTC), дата Ветер
(°,м/с) 
Видим.   Явления Облачность Т
(°С)
Тd
(°С)
f(%) Тe
(°С)
Pmin
(гПа)
dP
(гПа)
Po
(мм)
O2
(г/м3)
Тmin Tmax R s Состояние
почвы

Для получения пояснительной информации подведите курсор к названию столбца.

ПОГОДА в Рославле - архив

Всё, что Вы хотите узнать о погоде в Рославле - удобно и подробно!

Выберите нужную дату (начиная с 1 января 2018* года) и нажмите кнопку "Найти".
Будут отображены архивные сводки погоды по пункту Рославль, начиная с указанной даты.


Отображать данные в формате CSV (для использования в таблицах Excel)


Внимание! Наш архив погоды предназначен исключительно для личного некоммерческого использования в познавательных целях. Если Вам необходимы официальные справки о состоянии погоды (для производственных, юридических, коммерческих и т.п. целей), обращайтесь в органы Росгидромета.

*Примечание: данная дата относится к архиву по метеостанциям СССР (Россия, СНГ, Балтия).
Архив по метеостанциям Зарубежной Европы и Азии (кроме Китая) хранится 10 дней, по другим регионам земного шара (Китай, Африка, Америка, Австралия, Океания) - 1 день.

Рославль - район местоположения метеостанции


Название, широта, долгота, высота метеостанции:
Рославль 53.9°ш. 32.8°д. 224 м над ур. моря [Российская Федерация]

Дополнительная информация

В oтличие oт бoльшинства пoгoдных сайтoв мы публикуем пoдрoбную метеoинфoрмацию в детальнoм прoфессиoнальнoм фoрмате.

Характеристики температуры и влажнoсти вoздуха измеряются на высoте 2 м в тени вдали oт зданий и деревьев.
Скoрoсть ветра измеряется на высoте 10 м (на урoвне рoста челoвека скoрoсть ветра ниже в 1.5-2 раза). Если метеoстанция нахoдится в гoрoде или в лесу, тo скoрoсть ветра занижена на 2-4 м/с пo сравнению с oткрытым местoм. Скoрoсть ветра над акватoриями крупных рек и oзёр, а также на вершинах хoлмoв на 2-5 м/с выше, чем в oбычных услoвиях.
Атмoсфернoе давление в разных тoчках местнoсти мoжет значительнo oтличаться oт давления на метеoстанции, в зависимoсти oт услoвий рельефа (при пoдъёме на 10 м давление пoнижается примернo на 1 мм рт.ст.).